LSGGLFLC

Guest
Details From LSGG - Geneva
To LFLC - Clermont-Ferrand_Auvergne
Flight Number -
Tags generated
Created
Modified
Stats Distance 125 nm / 232 km
Max Altitude 8,400 ft / 2,560 m
Waypoints 3
Social Downloads 5
Likes 0
Share

Download

Looking for another format? Having issues loading an existing format? Contact us
Advertisement - Login to hide

Notes

Basic altitude profile: - Ascent Rate: 1500ft/min - Ascent Speed: 180kts - Cruise Altitude: 15000ft - Cruise Speed: 250kts - Descent Rate: 1100ft/min - Descent Speed: 180kts Options: - Use NATs: no - Use PACOTS: no - Use low airways: yes - Use high airways: yes

Route

LSGG NINTU LFLC

ID Type Via Altitude (ft/m) Position (lat/lon) Dist (leg/tot) Name
O LSGG APT - 0 / 0 46.23775 / 6.10617 - / 0 nm Geneva
NINTU FIX - 8,400 / 2,560 46.14722 / 5.55306 23 / 23 nm
O LFLC APT - 0 / 0 45.78671 / 3.16997 101 / 125 nm Clermont-Ferrand_Auvergne

Altitude Profile

Advertisement - Login to hide

LSGG

Details ICAO LSGG (GVA)
Name Geneva
Region Switzerland
Timezone Europe/Zurich (UTC+2.0)
Stats Elevation 1,411 ft / 430 m (AMSL)
Location 46.238100° 6.109010°
Runways 1
Magnetic Variation 2.534° E

METAR

LSGG 211150Z AUTO 26005KT 200V310 9999 FEW032 25/15 Q1011 NOSIG

Decode

TAF

TAF TAF LSGG 211125Z 2112/2218 23006KT 9999 FEW050 SCT080 TX24/2114Z TN17/2204Z TX25/2215Z BECMG 2207/2209 04007KT

Decode

Departure Runways

ID Width Length Bearing (true/mag) Surface Threshold Overrun Markings Lighting
04 164 ft / 50 m 12,806 ft / 3,903 m 45.42° / 42.89° CONCRETE 1,076 ft / 328 m 0 ft / 0 m PREC-APP CENTERLINE EDGE THRESHOLD CALVERT TDZ REIL-OMNI
22 164 ft / 50 m 12,806 ft / 3,903 m 225.45° / 222.91° CONCRETE 0 ft / 0 m 0 ft / 0 m PREC-APP CENTERLINE EDGE THRESHOLD CALVERT-ILS TDZ REIL-OMNI

LFLC

Details ICAO LFLC (CFE)
Name Clermont-Ferrand Auvergne
Region France
Timezone Europe/Paris (UTC+2.0)
Stats Elevation 1,091 ft / 333 m (AMSL)
Location 45.786700° 3.169980°
Runways 1
Magnetic Variation 1.790° E

METAR

LFLC 211200Z AUTO 24009KT 210V280 9999 BKN041/// BKN047/// BKN062/// //////TCU 25/15 Q1012 TEMPO 4000 SHRA

Decode

TAF

TAF LFLC 211100Z 2112/2212 36008KT 9999 BKN050 PROB30 TEMPO 2112/2118 4000 SHRA SCT045TCU BECMG 2122/2124 36005KT

Decode

Destination Runways

ID Width Length Bearing (true/mag) Surface Threshold Overrun Markings Lighting
08 148 ft / 45 m 9,869 ft / 3,008 m 81.95° / 80.16° ASPHALT 0 ft / 0 m 0 ft / 0 m APP CENTERLINE EDGE THRESHOLD
26 148 ft / 45 m 9,869 ft / 3,008 m 261.98° / 260.19° ASPHALT 469 ft / 143 m 0 ft / 0 m PREC-APP CENTERLINE EDGE THRESHOLD ALSF-II TDZ

Approach Navaids

Runway Type Ident Frequency Range Bearing (true/mag) Slope Elevation
26 DME CF 111.10 MHz 27 nm / 50 km - - 1,089 ft / 332 m (AMSL)
26 LOC-ILS CF 111.10 MHz 18 nm / 33 km 261.96° / 260.17 ° - 1,091 ft / 333 m (AMSL)
26 GS CF 111.10 MHz 10 nm / 19 km 261.96° / 260.17 ° 3.00° 1,091 ft / 333 m (AMSL)

Popular Alternatives